Time,TemperatureF,DewpointF,PressureIn,WindDirection,WindDirectionDegrees,WindSpeedMPH,WindSpeedGustMPH,Humidity,HourlyPrecipIn,Conditions,Clouds,dailyrainin,SolarRadiationWatts/m^2,SoftwareType,DateUTC
2013-06-04 00:01:00,71.1,70.5,29.94,SW,217,0.3,2.3,98,0.00,RA,OVC,0.00,0.0,WeatherDisplay:10.37,2013-06-04 04:01:00,
2013-06-04 00:02:00,71.1,70.5,29.94,SW,217,0.0,0.0,98,0.00,RA,OVC,0.00,0.0,WeatherDisplay:10.37,2013-06-04 04:02:00,
2013-06-04 00:07:00,71.2,70.6,29.94,West,274,1.5,2.3,98,0.00,RA,OVC,0.00,0.0,WeatherDisplay:10.37,2013-06-04 04:07:00,
2013-06-04 00:12:00,71.2,70.6,29.94,West,277,0.2,1.0,98,0.00,CLR,OVC,0.00,0.0,WeatherDisplay:10.37,2013-06-04 04:12:00,
2013-06-04 00:17:00,71.1,70.5,29.94,West,277,0.1,0.0,98,0.00,CLR,OVC,0.00,0.0,WeatherDisplay:10.37,2013-06-04 04:17:00,
2013-06-04 00:22:00,70.9,70.3,29.94,West,277,1.2,2.3,98,0.00,CLR,OVC,0.00,0.0,WeatherDisplay:10.37,2013-06-04 04:22:00,
2013-06-04 00:27:00,70.7,70.1,29.95,West,279,0.2,2.3,98,0.00,CLR,OVC,0.00,0.0,WeatherDisplay:10.37,2013-06-04 04:27:00,
2013-06-04 00:32:00,70.5,69.9,29.94,West,280,0.0,0.0,98,0.00,CLR,OVC,0.00,0.0,WeatherDisplay:10.37,2013-06-04 04:32:00,
2013-06-04 00:37:00,70.3,69.7,29.94,West,279,0.1,1.1,98,0.00,CLR,OVC,0.00,0.0,WeatherDisplay:10.37,2013-06-04 04:37:00,
2013-06-04 00:42:00,70.2,69.6,29.94,West,279,0.0,0.0,98,0.00,CLR,OVC,0.00,0.0,WeatherDisplay:10.37,2013-06-04 04:42:00,
2013-06-04 00:47:00,70.1,69.5,29.94,West,279,0.0,0.0,98,0.00,CLR,OVC,0.00,0.0,WeatherDisplay:10.37,2013-06-04 04:47:00,
2013-06-04 00:52:00,69.9,69.3,29.94,West,279,0.0,0.0,98,0.00,CLR,OVC,0.00,0.0,WeatherDisplay:10.37,2013-06-04 04:52:00,
2013-06-04 00:57:00,69.8,69.2,29.94,West,280,0.0,0.0,98,0.00,CLR,OVC,0.00,0.0,WeatherDisplay:10.37,2013-06-04 04:57:00,
2013-06-04 01:02:00,69.7,68.8,29.94,West,280,0.0,0.0,97,0.00,CLR,OVC,0.00,0.0,WeatherDisplay:10.37,2013-06-04 05:02:00,
2013-06-04 01:07:00,69.5,68.9,29.94,West,279,0.0,0.0,98,0.00,CLR,OVC,0.00,0.0,WeatherDisplay:10.37,2013-06-04 05:07:00,
2013-06-04 01:12:00,69.4,68.8,29.94,West,279,0.0,0.0,98,0.00,CLR,OVC,0.00,0.0,WeatherDisplay:10.37,2013-06-04 05:12:00,
2013-06-04 01:17:00,69.3,68.7,29.94,West,279,0.0,0.0,98,0.00,CLR,OVC,0.00,0.0,WeatherDisplay:10.37,2013-06-04 05:17:00,
2013-06-04 01:22:00,69.3,68.7,29.94,West,279,0.7,1.1,98,0.00,CLR,OVC,0.00,0.0,WeatherDisplay:10.37,2013-06-04 05:22:00,
2013-06-04 01:27:00,69.4,68.8,29.94,West,279,0.0,1.1,98,0.00,CLR,OVC,0.00,0.0,WeatherDisplay:10.37,2013-06-04 05:27:00,
2013-06-04 01:32:00,69.4,68.8,29.94,West,279,0.0,1.1,98,0.00,CLR,OVC,0.00,0.0,WeatherDisplay:10.37,2013-06-04 05:32:00,
2013-06-04 01:37:00,69.4,68.8,29.94,West,279,0.0,0.0,98,0.00,CLR,OVC,0.00,0.0,WeatherDisplay:10.37,2013-06-04 05:37:00,
2013-06-04 01:42:00,69.4,68.8,29.94,West,279,0.0,0.0,98,0.00,CLR,OVC,0.00,0.0,WeatherDisplay:10.37,2013-06-04 05:42:00,
2013-06-04 01:47:00,69.4,68.8,29.94,West,279,0.0,0.0,98,0.00,CLR,OVC,0.00,0.0,WeatherDisplay:10.37,2013-06-04 05:47:00,
2013-06-04 01:52:00,69.4,68.8,29.94,West,279,0.0,0.0,98,0.00,CLR,OVC,0.00,0.0,WeatherDisplay:10.37,2013-06-04 05:52:00,
2013-06-04 01:57:00,69.3,68.7,29.93,West,279,0.0,0.0,98,0.00,CLR,OVC,0.00,0.0,WeatherDisplay:10.37,2013-06-04 05:57:00,
2013-06-04 02:02:00,69.2,68.6,29.93,West,279,0.0,0.0,98,0.00,CLR,OVC,0.00,0.0,WeatherDisplay:10.37,2013-06-04 06:02:00,
2013-06-04 02:07:00,69.2,68.6,29.93,West,279,0.0,0.0,98,0.00,CLR,OVC,0.00,0.0,WeatherDisplay:10.37,2013-06-04 06:07:00,
2013-06-04 02:12:00,69.1,68.5,29.93,West,279,0.0,0.0,98,0.00,CLR,OVC,0.00,0.0,WeatherDisplay:10.37,2013-06-04 06:12:00,
2013-06-04 02:17:00,69.0,68.4,29.93,West,279,0.0,0.0,98,0.00,CLR,OVC,0.00,0.0,WeatherDisplay:10.37,2013-06-04 06:17:00,
2013-06-04 02:22:00,69.0,68.4,29.92,West,279,0.0,0.0,98,0.00,CLR,OVC,0.00,0.0,WeatherDisplay:10.37,2013-06-04 06:22:00,
2013-06-04 02:27:00,69.0,68.4,29.92,West,279,0.0,0.0,98,0.00,CLR,OVC,0.00,0.0,WeatherDisplay:10.37,2013-06-04 06:27:00,
2013-06-04 02:32:00,69.2,68.6,29.92,West,279,0.0,0.0,98,0.00,CLR,OVC,0.00,0.0,WeatherDisplay:10.37,2013-06-04 06:32:00,
2013-06-04 02:37:00,69.2,68.6,29.92,West,279,0.0,0.0,98,0.00,CLR,OVC,0.00,0.0,WeatherDisplay:10.37,2013-06-04 06:37:00,
2013-06-04 02:42:00,69.2,68.6,29.92,West,279,0.0,0.0,98,0.00,CLR,OVC,0.00,0.0,WeatherDisplay:10.37,2013-06-04 06:42:00,
2013-06-04 02:47:00,69.1,68.5,29.92,West,279,0.0,0.0,98,0.00,CLR,OVC,0.00,0.0,WeatherDisplay:10.37,2013-06-04 06:47:00,
2013-06-04 02:52:00,69.0,68.4,29.93,West,279,0.0,0.0,98,0.00,CLR,OVC,0.00,0.0,WeatherDisplay:10.37,2013-06-04 06:52:00,
2013-06-04 02:57:00,69.0,68.4,29.92,West,279,0.0,0.0,98,0.00,CLR,OVC,0.00,0.0,WeatherDisplay:10.37,2013-06-04 06:57:00,
2013-06-04 03:02:00,68.9,68.3,29.92,West,279,0.0,0.0,98,0.00,CLR,OVC,0.00,0.0,WeatherDisplay:10.37,2013-06-04 07:02:00,
2013-06-04 03:07:00,68.9,68.3,29.92,West,279,0.0,0.0,98,0.00,CLR,OVC,0.00,0.0,WeatherDisplay:10.37,2013-06-04 07:07:00,
2013-06-04 03:12:00,68.9,68.3,29.92,West,279,0.0,0.0,98,0.00,CLR,OVC,0.00,0.0,WeatherDisplay:10.37,2013-06-04 07:12:00,
2013-06-04 03:17:00,68.9,68.3,29.92,West,279,0.0,0.0,98,0.00,CLR,OVC,0.00,0.0,WeatherDisplay:10.37,2013-06-04 07:17:00,
2013-06-04 03:22:00,68.9,68.3,29.92,West,279,0.0,0.0,98,0.00,CLR,OVC,0.00,0.0,WeatherDisplay:10.37,2013-06-04 07:22:00,
2013-06-04 03:27:00,68.9,68.3,29.92,West,279,0.0,0.0,98,0.00,CLR,OVC,0.00,0.0,WeatherDisplay:10.37,2013-06-04 07:27:00,
2013-06-04 03:32:00,69.0,68.4,29.92,West,279,0.0,0.0,98,0.00,CLR,OVC,0.00,0.0,WeatherDisplay:10.37,2013-06-04 07:32:00,
2013-06-04 03:37:00,68.9,68.3,29.92,West,279,0.0,0.0,98,0.00,CLR,OVC,0.00,0.0,WeatherDisplay:10.37,2013-06-04 07:37:00,
2013-06-04 03:42:00,68.9,68.3,29.92,West,279,0.2,1.1,98,0.00,CLR,OVC,0.00,0.0,WeatherDisplay:10.37,2013-06-04 07:42:00,
2013-06-04 03:47:00,68.8,68.2,29.92,West,279,0.0,0.0,98,0.00,CLR,OVC,0.00,0.0,WeatherDisplay:10.37,2013-06-04 07:47:00,
2013-06-04 03:52:00,68.8,68.2,29.92,WNW,283,0.3,1.1,98,0.00,CLR,OVC,0.00,0.0,WeatherDisplay:10.37,2013-06-04 07:52:00,
2013-06-04 03:57:00,68.8,68.2,29.92,WNW,283,0.2,1.1,98,0.00,CLR,OVC,0.00,0.0,WeatherDisplay:10.37,2013-06-04 07:57:00,
2013-06-04 04:03:00,68.8,68.2,29.92,WNW,283,0.2,1.1,98,0.00,CLR,OVC,0.00,0.0,WeatherDisplay:10.37,2013-06-04 08:03:00,
2013-06-04 04:08:00,68.7,68.1,29.92,WNW,283,0.0,0.0,98,0.00,CLR,OVC,0.00,0.0,WeatherDisplay:10.37,2013-06-04 08:08:00,
2013-06-04 04:13:00,68.7,68.1,29.92,WNW,283,0.0,0.0,98,0.00,CLR,OVC,0.00,0.0,WeatherDisplay:10.37,2013-06-04 08:13:00,
2013-06-04 04:18:00,68.6,68.0,29.92,WNW,283,0.0,0.0,98,0.00,CLR,OVC,0.00,0.0,WeatherDisplay:10.37,2013-06-04 08:18:00,
2013-06-04 04:23:00,68.6,68.0,29.92,WNW,283,0.0,0.0,98,0.00,CLR,OVC,0.00,0.0,WeatherDisplay:10.37,2013-06-04 08:23:00,
2013-06-04 04:28:00,68.5,67.9,29.92,WNW,283,0.0,0.0,98,0.00,CLR,OVC,0.00,0.0,WeatherDisplay:10.37,2013-06-04 08:28:00,
2013-06-04 04:33:00,68.4,67.8,29.92,WNW,283,0.0,0.0,98,0.00,CLR,OVC,0.00,0.0,WeatherDisplay:10.37,2013-06-04 08:33:00,
2013-06-04 04:38:00,68.3,67.7,29.92,WNW,283,0.0,0.0,98,0.00,CLR,OVC,0.00,0.0,WeatherDisplay:10.37,2013-06-04 08:38:00,
2013-06-04 04:43:00,68.3,67.7,29.92,WNW,283,0.5,1.1,98,0.00,CLR,OVC,0.00,0.0,WeatherDisplay:10.37,2013-06-04 08:43:00,
2013-06-04 04:48:00,68.4,67.8,29.92,WNW,293,0.0,1.0,98,0.00,CLR,OVC,0.00,0.0,WeatherDisplay:10.37,2013-06-04 08:48:00,
2013-06-04 04:53:00,68.4,67.8,29.92,WNW,293,0.1,0.0,98,0.00,CLR,OVC,0.00,0.0,WeatherDisplay:10.37,2013-06-04 08:53:00,
2013-06-04 04:58:00,68.3,67.7,29.92,WNW,293,0.0,0.0,98,0.00,CLR,OVC,0.00,0.0,WeatherDisplay:10.37,2013-06-04 08:58:00,
2013-06-04 05:03:00,68.4,67.8,29.92,WNW,292,0.0,0.0,98,0.00,CLR,OVC,0.00,0.0,WeatherDisplay:10.37,2013-06-04 09:03:00,
2013-06-04 05:08:00,68.3,67.7,29.93,WNW,292,0.0,0.0,98,0.00,CLR,OVC,0.00,0.0,WeatherDisplay:10.37,2013-06-04 09:08:00,
2013-06-04 05:13:00,68.3,67.7,29.93,WNW,292,0.0,0.0,98,0.00,CLR,OVC,0.00,0.0,WeatherDisplay:10.37,2013-06-04 09:13:00,
2013-06-04 05:18:00,68.2,67.6,29.93,WNW,292,0.0,0.0,98,0.00,CLR,OVC,0.00,0.0,WeatherDisplay:10.37,2013-06-04 09:18:00,
2013-06-04 05:23:00,68.1,67.5,29.93,WNW,292,0.0,0.0,98,0.00,CLR,OVC,0.00,0.0,WeatherDisplay:10.37,2013-06-04 09:23:00,
2013-06-04 05:28:00,67.9,67.3,29.93,WNW,292,0.0,0.0,98,0.00,CLR,OVC,0.00,0.0,WeatherDisplay:10.37,2013-06-04 09:28:00,
2013-06-04 05:33:00,67.8,67.2,29.94,WNW,292,0.2,1.1,98,0.00,OVC,,0.00,0.0,WeatherDisplay:10.37,2013-06-04 09:33:00,
2013-06-04 05:38:00,67.8,67.2,29.94,WNW,292,0.0,0.0,98,0.00,OVC,,0.00,0.0,WeatherDisplay:10.37,2013-06-04 09:38:00,
2013-06-04 05:43:00,67.8,67.2,29.93,WNW,292,0.0,0.0,98,0.00,OVC,,0.00,0.0,WeatherDisplay:10.37,2013-06-04 09:43:00,
2013-06-04 05:48:00,67.7,67.1,29.93,WNW,292,0.0,0.0,98,0.00,OVC,,0.00,0.0,WeatherDisplay:10.37,2013-06-04 09:48:00,
2013-06-04 05:53:00,67.7,67.1,29.93,WNW,292,0.0,0.0,98,0.00,OVC,,0.00,0.0,WeatherDisplay:10.37,2013-06-04 09:53:00,
2013-06-04 05:58:00,67.7,67.1,29.93,WNW,292,0.0,0.0,98,0.00,OVC,,0.00,0.0,WeatherDisplay:10.37,2013-06-04 09:58:00,
2013-06-04 06:03:00,67.8,67.2,29.93,WNW,292,0.0,0.0,98,0.00,OVC,,0.00,0.0,WeatherDisplay:10.37,2013-06-04 10:03:00,
2013-06-04 06:08:00,67.8,67.2,29.93,WNW,292,0.0,0.0,98,0.00,OVC,,0.00,0.0,WeatherDisplay:10.37,2013-06-04 10:08:00,
2013-06-04 06:13:00,67.7,67.1,29.93,WNW,292,0.0,0.0,98,0.00,OVC,,0.00,0.0,WeatherDisplay:10.37,2013-06-04 10:13:00,
2013-06-04 06:18:00,67.7,67.1,29.93,WNW,292,0.0,0.0,98,0.00,OVC,,0.00,0.0,WeatherDisplay:10.37,2013-06-04 10:18:00,
2013-06-04 06:23:00,67.7,67.1,29.94,WNW,292,0.0,0.0,98,0.00,OVC,,0.00,0.0,WeatherDisplay:10.37,2013-06-04 10:23:00,
2013-06-04 06:28:00,67.8,67.2,29.95,WNW,292,0.3,1.1,98,0.00,OVC,,0.00,0.0,WeatherDisplay:10.37,2013-06-04 10:28:00,
2013-06-04 06:33:00,68.0,67.7,29.95,WNW,292,0.0,0.0,99,0.00,OVC,,0.00,0.0,WeatherDisplay:10.37,2013-06-04 10:33:00,
2013-06-04 06:38:00,68.2,67.9,29.95,NW,306,1.3,2.3,99,0.00,OVC,,0.00,0.0,WeatherDisplay:10.37,2013-06-04 10:38:00,
2013-06-04 06:43:00,68.4,68.1,29.95,NW,306,0.0,0.0,99,0.00,OVC,,0.00,0.0,WeatherDisplay:10.37,2013-06-04 10:43:00,
2013-06-04 06:48:00,68.5,68.2,29.95,NW,306,0.0,0.0,99,0.00,OVC,,0.00,0.0,WeatherDisplay:10.37,2013-06-04 10:48:00,
2013-06-04 06:53:00,68.5,68.2,29.95,NW,315,0.1,1.1,99,0.00,OVC,,0.00,0.0,WeatherDisplay:10.37,2013-06-04 10:53:00,
2013-06-04 06:58:00,68.4,68.1,29.95,NW,315,0.0,0.0,99,0.00,OVC,,0.00,0.0,WeatherDisplay:10.37,2013-06-04 10:58:00,
2013-06-04 07:03:00,68.4,67.8,29.94,NW,315,0.0,1.0,98,0.00,OVC,,0.00,0.0,WeatherDisplay:10.37,2013-06-04 11:03:00,
2013-06-04 07:08:00,68.4,67.8,29.94,NW,319,0.3,2.3,98,0.00,OVC,,0.00,0.0,WeatherDisplay:10.37,2013-06-04 11:08:00,
2013-06-04 07:13:00,68.3,67.7,29.94,NW,319,0.2,2.3,98,0.00,OVC,,0.00,0.0,WeatherDisplay:10.37,2013-06-04 11:13:00,
2013-06-04 07:18:00,68.4,67.8,29.95,NW,319,0.0,1.0,98,0.00,OVC,,0.00,0.0,WeatherDisplay:10.37,2013-06-04 11:18:00,
2013-06-04 07:23:00,68.6,68.3,29.95,North,10,0.7,3.5,99,0.00,OVC,,0.00,0.0,WeatherDisplay:10.37,2013-06-04 11:23:00,
2013-06-04 07:28:00,68.7,68.4,29.95,WNW,300,0.0,0.0,99,0.00,OVC,,0.00,0.0,WeatherDisplay:10.37,2013-06-04 11:28:00,
2013-06-04 07:33:00,68.7,68.4,29.95,NNW,336,0.0,2.3,99,0.00,OVC,,0.00,0.0,WeatherDisplay:10.37,2013-06-04 11:33:00,
2013-06-04 07:38:00,68.9,68.6,29.95,NNW,333,1.1,2.0,99,0.00,OVC,,0.00,0.0,WeatherDisplay:10.37,2013-06-04 11:38:00,
2013-06-04 07:43:00,69.0,68.7,29.96,NW,314,0.1,1.1,99,0.00,OVC,,0.00,0.0,WeatherDisplay:10.37,2013-06-04 11:43:00,
2013-06-04 07:48:00,69.3,69.0,29.96,NW,312,0.0,1.1,99,0.00,OVC,,0.00,0.0,WeatherDisplay:10.37,2013-06-04 11:48:00,
2013-06-04 07:53:00,69.7,69.4,29.96,North,351,0.0,3.5,99,0.00,OVC,,0.00,0.0,WeatherDisplay:10.37,2013-06-04 11:53:00,
2013-06-04 07:58:00,70.2,69.9,29.96,North,355,0.9,0.0,99,0.00,OVC,,0.00,0.0,WeatherDisplay:10.37,2013-06-04 11:58:00,
2013-06-04 08:03:00,70.6,70.3,29.96,North,355,0.2,2.3,99,0.00,OVC,,0.00,0.0,WeatherDisplay:10.37,2013-06-04 12:03:00,
2013-06-04 08:08:00,71.1,70.8,29.96,NE,49,0.5,3.0,99,0.00,OVC,,0.00,0.0,WeatherDisplay:10.37,2013-06-04 12:08:00,
2013-06-04 08:13:00,71.6,71.3,29.96,NNE,19,0.0,0.0,99,0.00,OVC,,0.00,0.0,WeatherDisplay:10.37,2013-06-04 12:13:00,
2013-06-04 08:18:00,71.9,71.6,29.96,NNW,344,1.0,2.3,99,0.00,OVC,,0.00,0.0,WeatherDisplay:10.37,2013-06-04 12:18:00,
2013-06-04 08:23:00,72.0,71.7,29.97,ESE,121,1.3,3.5,99,0.00,OVC,,0.00,0.0,WeatherDisplay:10.37,2013-06-04 12:23:00,
2013-06-04 08:28:00,71.9,71.3,29.97,WNW,298,3.0,3.5,98,0.00,OVC,,0.00,0.0,WeatherDisplay:10.37,2013-06-04 12:28:00,
2013-06-04 08:33:00,71.9,71.0,29.97,NW,318,0.1,1.0,97,0.00,OVC,,0.00,0.0,WeatherDisplay:10.37,2013-06-04 12:33:00,
2013-06-04 08:38:00,72.2,71.0,29.98,NNW,333,1.3,3.5,96,0.00,OVC,,0.00,0.0,WeatherDisplay:10.37,2013-06-04 12:38:00,
2013-06-04 08:43:00,72.4,70.9,29.98,NW,304,2.8,3.5,95,0.00,OVC,,0.00,0.0,WeatherDisplay:10.37,2013-06-04 12:43:00,
2013-06-04 08:48:00,72.8,71.0,29.98,NNW,333,1.1,2.0,94,0.00,OVC,,0.00,0.0,WeatherDisplay:10.37,2013-06-04 12:48:00,
2013-06-04 08:53:00,73.2,71.4,29.98,NW,317,0.3,2.3,94,0.00,OVC,,0.00,0.0,WeatherDisplay:10.37,2013-06-04 12:53:00,
2013-06-04 08:58:00,73.7,71.2,29.98,NW,315,1.6,3.5,92,0.00,OVC,,0.00,0.0,WeatherDisplay:10.37,2013-06-04 12:58:00,
2013-06-04 09:03:00,74.4,71.9,29.99,NW,304,0.3,1.1,92,0.00,OVC,,0.00,0.0,WeatherDisplay:10.37,2013-06-04 13:03:00,
2013-06-04 09:08:00,75.1,72.0,29.99,WNW,303,0.3,1.1,90,0.00,OVC,,0.00,0.0,WeatherDisplay:10.37,2013-06-04 13:08:00,
2013-06-04 09:13:00,75.8,72.3,29.99,NW,309,0.0,0.0,89,0.00,OVC,,0.00,0.0,WeatherDisplay:10.37,2013-06-04 13:13:00,
2013-06-04 09:19:00,76.4,72.9,29.99,NE,51,0.2,1.1,89,0.00,OVC,,0.00,0.0,WeatherDisplay:10.37,2013-06-04 13:19:00,
2013-06-04 09:24:00,76.9,72.7,29.99,NNE,32,0.4,2.3,87,0.00,OVC,,0.00,0.0,WeatherDisplay:10.37,2013-06-04 13:24:00,
2013-06-04 09:29:00,77.3,72.1,29.99,ENE,67,1.7,6.9,84,0.00,OVC,,0.00,0.0,WeatherDisplay:10.37,2013-06-04 13:29:00,
2013-06-04 09:34:00,77.5,72.3,29.99,NW,310,1.0,3.5,84,0.00,OVC,,0.00,0.0,WeatherDisplay:10.37,2013-06-04 13:34:00,
2013-06-04 09:39:00,77.9,73.4,30.00,NE,49,0.4,2.3,86,0.00,OVC,,0.00,0.0,WeatherDisplay:10.37,2013-06-04 13:39:00,
2013-06-04 09:44:00,77.9,72.3,30.00,NE,47,4.0,6.9,83,0.00,OVC,,0.00,0.0,WeatherDisplay:10.37,2013-06-04 13:44:00,
2013-06-04 09:49:00,77.9,72.3,30.00,NE,49,4.0,5.8,83,0.00,OVC,,0.00,0.0,WeatherDisplay:10.37,2013-06-04 13:49:00,
2013-06-04 09:54:00,78.2,73.0,30.00,NW,326,1.7,3.5,84,0.00,OVC,,0.00,0.0,WeatherDisplay:10.37,2013-06-04 13:54:00,
2013-06-04 09:59:00,78.4,72.4,30.00,North,5,2.1,4.6,82,0.00,OVC,,0.00,0.0,WeatherDisplay:10.37,2013-06-04 13:59:00,
2013-06-04 10:04:00,78.4,72.4,30.00,ENE,68,4.8,8.1,82,0.00,OVC,,0.00,0.0,WeatherDisplay:10.37,2013-06-04 14:04:00,
2013-06-04 10:09:00,78.0,72.4,30.00,NNE,18,2.6,5.8,83,0.00,OVC,,0.00,0.0,WeatherDisplay:10.37,2013-06-04 14:09:00,
2013-06-04 10:14:00,78.1,72.9,30.01,NE,47,1.2,3.5,84,0.00,OVC,,0.00,0.0,WeatherDisplay:10.37,2013-06-04 14:14:00,
2013-06-04 10:19:00,78.5,72.5,30.01,NE,36,4.3,6.0,82,0.00,OVC,,0.00,0.0,WeatherDisplay:10.37,2013-06-04 14:19:00,
2013-06-04 10:24:00,78.3,72.0,30.01,NE,51,4.6,6.9,81,0.00,OVC,,0.00,0.0,WeatherDisplay:10.37,2013-06-04 14:24:00,
2013-06-04 10:29:00,78.5,72.2,30.01,East,82,5.7,8.1,81,0.00,OVC,,0.00,0.0,WeatherDisplay:10.37,2013-06-04 14:29:00,
2013-06-04 10:34:00,78.2,71.9,30.01,ENE,63,4.9,8.1,81,0.00,OVC,,0.00,0.0,WeatherDisplay:10.37,2013-06-04 14:34:00,
2013-06-04 10:39:00,77.9,72.0,30.01,NE,55,4.4,6.9,82,0.00,OVC,,0.00,0.0,WeatherDisplay:10.37,2013-06-04 14:39:00,
2013-06-04 10:44:00,77.6,72.4,30.02,NNW,329,0.1,3.5,84,0.00,OVC,,0.00,0.0,WeatherDisplay:10.37,2013-06-04 14:44:00,
2013-06-04 10:49:00,77.5,71.9,30.02,North,360,3.8,5.8,83,0.00,OVC,,0.00,0.0,WeatherDisplay:10.37,2013-06-04 14:49:00,
2013-06-04 10:54:00,77.4,71.5,30.02,ENE,60,4.8,8.1,82,0.00,OVC,,0.00,0.0,WeatherDisplay:10.37,2013-06-04 14:54:00,
2013-06-04 10:59:00,77.0,71.8,30.02,East,79,0.8,4.6,84,0.00,OVC,,0.00,0.0,WeatherDisplay:10.37,2013-06-04 14:59:00,
2013-06-04 11:04:00,76.2,71.4,30.02,NE,56,1.8,5.8,85,0.00,OVC,,0.00,0.0,WeatherDisplay:10.37,2013-06-04 15:04:00,
2013-06-04 11:09:00,75.8,71.7,30.03,East,86,0.0,4.6,87,0.00,OVC,,0.00,0.0,WeatherDisplay:10.37,2013-06-04 15:09:00,
2013-06-04 11:14:00,75.8,71.7,30.03,ENE,66,0.1,1.1,87,0.00,OVC,,0.00,0.0,WeatherDisplay:10.37,2013-06-04 15:14:00,
2013-06-04 11:19:00,75.7,71.2,30.03,ENE,59,0.1,3.5,86,0.00,OVC,,0.00,0.0,WeatherDisplay:10.37,2013-06-04 15:19:00,
2013-06-04 11:24:00,75.8,71.3,30.03,East,81,0.0,0.0,86,0.00,OVC,,0.00,0.0,WeatherDisplay:10.37,2013-06-04 15:24:00,
2013-06-04 11:29:00,75.8,71.3,30.03,NE,44,0.8,2.3,86,0.00,OVC,,0.00,0.0,WeatherDisplay:10.37,2013-06-04 15:29:00,
2013-06-04 11:34:00,75.8,71.0,30.03,East,81,0.0,0.0,85,0.00,OVC,,0.00,0.0,WeatherDisplay:10.37,2013-06-04 15:34:00,
2013-06-04 11:39:00,75.9,71.4,30.03,NE,42,2.4,4.6,86,0.00,OVC,,0.00,0.0,WeatherDisplay:10.37,2013-06-04 15:39:00,
2013-06-04 11:44:00,76.0,71.2,30.03,ENE,69,4.3,6.9,85,0.00,OVC,,0.00,0.0,WeatherDisplay:10.37,2013-06-04 15:44:00,
2013-06-04 11:49:00,75.9,71.1,30.03,NNE,29,4.4,8.1,85,0.00,OVC,,0.00,0.0,WeatherDisplay:10.37,2013-06-04 15:49:00,
2013-06-04 11:54:00,76.1,71.3,30.02,ENE,65,6.5,8.1,85,0.00,OVC,,0.00,0.0,WeatherDisplay:10.37,2013-06-04 15:54:00,
2013-06-04 11:59:00,76.6,71.7,30.02,NE,55,4.9,8.1,85,0.00,OVC,,0.00,0.0,WeatherDisplay:10.37,2013-06-04 15:59:00,
2013-06-04 12:04:00,77.2,72.0,30.02,NE,46,2.1,5.0,84,0.00,OVC,,0.00,0.0,WeatherDisplay:10.37,2013-06-04 16:04:00,
2013-06-04 12:09:00,77.5,71.9,30.03,North,5,5.3,6.9,83,0.00,OVC,,0.00,0.0,WeatherDisplay:10.37,2013-06-04 16:09:00,
2013-06-04 12:14:00,77.4,71.1,30.02,NE,40,1.6,4.6,81,0.00,OVC,,0.00,0.0,WeatherDisplay:10.37,2013-06-04 16:14:00,
2013-06-04 12:19:00,77.7,71.8,30.02,North,349,5.6,11.5,82,0.00,OVC,,0.00,0.0,WeatherDisplay:10.37,2013-06-04 16:19:00,
2013-06-04 12:24:00,78.2,71.9,30.02,NE,53,2.7,5.8,81,0.00,OVC,,0.00,0.0,WeatherDisplay:10.37,2013-06-04 16:24:00,
2013-06-04 12:29:00,78.4,72.1,30.02,NE,49,2.8,9.2,81,0.00,OVC,,0.00,0.0,WeatherDisplay:10.37,2013-06-04 16:29:00,
2013-06-04 12:34:00,78.4,72.1,30.02,ENE,64,4.2,8.1,81,0.00,OVC,,0.00,0.0,WeatherDisplay:10.37,2013-06-04 16:34:00,
2013-06-04 12:39:00,78.2,71.9,30.02,NE,55,5.8,9.2,81,0.00,OVC,,0.00,0.0,WeatherDisplay:10.37,2013-06-04 16:39:00,
2013-06-04 12:44:00,78.1,71.8,30.02,ENE,70,3.6,7.0,81,0.00,OVC,,0.00,0.0,WeatherDisplay:10.37,2013-06-04 16:44:00,
2013-06-04 12:49:00,77.9,72.3,30.02,NE,37,0.7,3.5,83,0.00,OVC,,0.00,0.0,WeatherDisplay:10.37,2013-06-04 16:49:00,
2013-06-04 12:54:00,78.2,71.9,30.02,NE,51,4.7,10.4,81,0.00,OVC,,0.00,0.0,WeatherDisplay:10.37,2013-06-04 16:54:00,
2013-06-04 12:59:00,78.1,71.8,30.02,NNE,17,3.2,6.9,81,0.00,OVC,,0.00,0.0,WeatherDisplay:10.37,2013-06-04 16:59:00,
2013-06-04 13:04:00,78.3,72.0,30.02,North,355,3.5,6.9,81,0.00,OVC,,0.00,0.0,WeatherDisplay:10.37,2013-06-04 17:04:00,
2013-06-04 13:09:00,78.5,71.8,30.02,NNW,339,1.4,4.6,80,0.00,OVC,,0.00,0.0,WeatherDisplay:10.37,2013-06-04 17:09:00,
2013-06-04 13:14:00,78.5,72.2,30.03,NE,36,4.1,5.8,81,0.00,OVC,,0.00,0.0,WeatherDisplay:10.37,2013-06-04 17:14:00,
2013-06-04 13:19:00,78.3,72.0,30.03,ENE,68,4.9,8.1,81,0.00,OVC,,0.00,0.0,WeatherDisplay:10.37,2013-06-04 17:19:00,
2013-06-04 13:24:00,78.2,71.5,30.03,North,5,4.0,8.1,80,0.00,OVC,,0.00,0.0,WeatherDisplay:10.37,2013-06-04 17:24:00,
2013-06-04 13:29:00,78.4,71.7,30.03,ENE,61,3.0,8.1,80,0.00,OVC,,0.00,0.0,WeatherDisplay:10.37,2013-06-04 17:29:00,
2013-06-04 13:34:00,78.6,71.9,30.02,NE,45,5.4,9.2,80,0.00,OVC,,0.00,0.0,WeatherDisplay:10.37,2013-06-04 17:34:00,
2013-06-04 13:39:00,78.8,72.1,30.02,NNE,22,2.3,8.1,80,0.00,OVC,,0.00,0.0,WeatherDisplay:10.37,2013-06-04 17:39:00,
2013-06-04 13:44:00,79.0,72.7,30.02,ENE,66,2.4,6.9,81,0.00,OVC,,0.00,0.0,WeatherDisplay:10.37,2013-06-04 17:44:00,
2013-06-04 13:49:00,79.3,72.2,30.02,East,82,3.1,10.4,79,0.00,OVC,,0.00,0.0,WeatherDisplay:10.37,2013-06-04 17:49:00,
2013-06-04 13:54:00,79.4,72.3,30.02,SE,128,2.5,4.0,79,0.00,OVC,,0.00,0.0,WeatherDisplay:10.37,2013-06-04 17:54:00,
2013-06-04 13:59:00,79.5,72.8,30.02,SE,125,4.0,4.6,80,0.00,OVC,,0.00,0.0,WeatherDisplay:10.37,2013-06-04 17:59:00,
2013-06-04 14:04:00,79.7,72.6,30.02,ENE,68,7.0,9.2,79,0.00,OVC,,0.00,0.0,WeatherDisplay:10.37,2013-06-04 18:04:00,
2013-06-04 14:09:00,79.4,72.7,30.02,SE,130,2.9,3.5,80,0.00,OVC,,0.00,0.0,WeatherDisplay:10.37,2013-06-04 18:09:00,
2013-06-04 14:14:00,79.4,73.1,30.02,NE,52,1.2,2.3,81,0.00,OVC,,0.00,0.0,WeatherDisplay:10.37,2013-06-04 18:14:00,
2013-06-04 14:19:00,79.4,72.3,30.02,ENE,69,3.6,5.8,79,0.00,OVC,,0.00,0.0,WeatherDisplay:10.37,2013-06-04 18:19:00,
2013-06-04 14:24:00,79.5,72.0,30.01,ENE,71,4.6,6.9,78,0.00,OVC,,0.00,0.0,WeatherDisplay:10.37,2013-06-04 18:24:00,
2013-06-04 14:29:00,80.0,72.9,30.01,ENE,63,3.6,5.8,79,0.00,OVC,,0.00,0.0,WeatherDisplay:10.37,2013-06-04 18:29:00,
2013-06-04 14:34:00,80.5,73.4,30.01,ENE,77,4.8,8.1,79,0.00,OVC,,0.00,0.0,WeatherDisplay:10.37,2013-06-04 18:34:00,
2013-06-04 14:39:00,80.2,73.1,30.01,NE,52,3.8,5.8,79,0.00,OVC,,0.00,0.0,WeatherDisplay:10.37,2013-06-04 18:39:00,
2013-06-04 14:44:00,80.2,72.7,30.01,East,86,6.7,8.1,78,0.00,OVC,,0.00,0.0,WeatherDisplay:10.37,2013-06-04 18:44:00,
2013-06-04 14:49:00,80.1,73.0,30.01,ENE,63,7.6,10.4,79,0.00,OVC,,0.00,0.0,WeatherDisplay:10.37,2013-06-04 18:49:00,
2013-06-04 14:54:00,80.3,73.6,30.01,ESE,113,4.0,6.9,80,0.00,OVC,,0.00,0.0,WeatherDisplay:10.37,2013-06-04 18:54:00,
2013-06-04 15:00:00,80.5,73.4,30.01,ENE,73,7.4,11.5,79,0.00,OVC,,0.00,0.0,WeatherDisplay:10.37,2013-06-04 19:00:00,
2013-06-04 15:05:00,80.2,72.7,30.00,SE,126,6.5,10.4,78,0.00,OVC,,0.00,0.0,WeatherDisplay:10.37,2013-06-04 19:05:00,
2013-06-04 15:10:00,80.3,73.2,30.00,ENE,70,5.3,8.1,79,0.00,OVC,,0.00,0.0,WeatherDisplay:10.37,2013-06-04 19:10:00,
2013-06-04 15:15:00,80.4,73.3,30.01,ESE,114,3.5,6.9,79,0.00,OVC,,0.00,0.0,WeatherDisplay:10.37,2013-06-04 19:15:00,
2013-06-04 15:20:00,80.3,72.4,30.00,ENE,57,5.6,8.1,77,0.00,OVC,,0.00,0.0,WeatherDisplay:10.37,2013-06-04 19:20:00,
2013-06-04 15:25:00,80.4,72.1,30.00,East,81,3.9,6.9,76,0.00,OVC,,0.00,0.0,WeatherDisplay:10.37,2013-06-04 19:25:00,
2013-06-04 15:30:00,80.6,72.7,30.00,SE,126,3.9,5.8,77,0.00,OVC,,0.00,0.0,WeatherDisplay:10.37,2013-06-04 19:30:00,
2013-06-04 15:35:00,80.9,72.6,30.00,NE,53,1.9,6.9,76,0.00,OVC,,0.00,0.0,WeatherDisplay:10.37,2013-06-04 19:35:00,
2013-06-04 15:40:00,81.0,72.7,30.00,ENE,78,4.6,6.9,76,0.00,OVC,,0.00,0.0,WeatherDisplay:10.37,2013-06-04 19:40:00,
2013-06-04 15:45:00,81.0,72.3,29.99,ENE,57,3.4,5.8,75,0.00,OVC,,0.00,0.0,WeatherDisplay:10.37,2013-06-04 19:45:00,
2013-06-04 15:50:00,80.9,72.2,29.99,North,5,7.0,10.4,75,0.00,OVC,,0.00,0.0,WeatherDisplay:10.37,2013-06-04 19:50:00,
2013-06-04 15:55:00,80.6,72.3,29.99,NE,56,3.3,6.9,76,0.00,OVC,,0.00,0.0,WeatherDisplay:10.37,2013-06-04 19:55:00,
2013-06-04 16:00:00,80.9,71.8,29.99,ENE,59,3.6,5.8,74,0.00,OVC,,0.00,0.0,WeatherDisplay:10.37,2013-06-04 20:00:00,
2013-06-04 16:05:00,81.2,72.1,29.99,East,99,4.6,6.9,74,0.00,OVC,,0.00,0.0,WeatherDisplay:10.37,2013-06-04 20:05:00,
2013-06-04 16:10:00,81.4,71.9,29.99,ENE,65,3.0,8.1,73,0.00,OVC,,0.00,0.0,WeatherDisplay:10.37,2013-06-04 20:10:00,
2013-06-04 16:15:00,81.2,72.1,29.99,ENE,61,5.3,8.1,74,0.00,OVC,,0.00,0.0,WeatherDisplay:10.37,2013-06-04 20:15:00,
2013-06-04 16:20:00,80.9,71.4,29.99,ESE,111,5.6,10.4,73,0.00,OVC,,0.00,0.0,WeatherDisplay:10.37,2013-06-04 20:20:00,
2013-06-04 16:25:00,80.4,71.7,29.99,ESE,117,3.3,5.8,75,0.00,OVC,,0.00,0.0,WeatherDisplay:10.37,2013-06-04 20:25:00,
2013-06-04 16:30:00,80.2,71.9,29.99,East,88,4.0,6.9,76,0.00,OVC,,0.00,0.0,WeatherDisplay:10.37,2013-06-04 20:30:00,
2013-06-04 16:35:00,80.0,71.8,29.99,East,98,4.3,8.1,76,0.00,OVC,,0.00,0.0,WeatherDisplay:10.37,2013-06-04 20:35:00,
2013-06-04 16:40:00,79.8,71.6,29.99,East,93,2.4,8.1,76,0.00,OVC,,0.00,0.0,WeatherDisplay:10.37,2013-06-04 20:40:00,
2013-06-04 16:45:00,79.6,71.8,30.00,ESE,111,4.6,9.0,77,0.00,OVC,,0.00,0.0,WeatherDisplay:10.37,2013-06-04 20:45:00,
2013-06-04 16:50:00,79.3,71.8,30.00,East,89,5.3,9.0,78,0.00,OVC,,0.00,0.0,WeatherDisplay:10.37,2013-06-04 20:50:00,
2013-06-04 16:55:00,79.1,71.6,30.00,East,88,5.8,10.4,78,0.00,OVC,,0.00,0.0,WeatherDisplay:10.37,2013-06-04 20:55:00,
2013-06-04 17:00:00,78.9,71.8,30.00,ESE,122,3.6,4.6,79,0.00,OVC,,0.00,0.0,WeatherDisplay:10.37,2013-06-04 21:00:00,
2013-06-04 17:05:00,78.5,71.4,30.00,East,84,5.4,10.4,79,0.00,OVC,,0.00,0.0,WeatherDisplay:10.37,2013-06-04 21:05:00,
2013-06-04 17:10:00,78.0,71.7,30.00,ENE,78,3.5,5.8,81,0.00,OVC,,0.00,0.0,WeatherDisplay:10.37,2013-06-04 21:10:00,
2013-06-04 17:15:00,77.7,71.8,30.00,ESE,103,1.7,5.0,82,0.00,OVC,,0.00,0.0,WeatherDisplay:10.37,2013-06-04 21:15:00,
2013-06-04 17:20:00,77.6,72.0,30.00,ESE,107,3.8,5.8,83,0.00,OVC,,0.00,0.0,WeatherDisplay:10.37,2013-06-04 21:20:00,
2013-06-04 17:25:00,77.5,71.9,30.00,SE,128,3.5,8.1,83,0.00,OVC,,0.00,0.0,WeatherDisplay:10.37,2013-06-04 21:25:00,
2013-06-04 17:30:00,77.5,71.9,30.00,ENE,71,4.2,5.0,83,0.00,OVC,,0.00,0.0,WeatherDisplay:10.37,2013-06-04 21:30:00,
2013-06-04 17:35:00,77.4,71.8,30.00,ENE,67,2.0,6.9,83,0.00,OVC,,0.00,0.0,WeatherDisplay:10.37,2013-06-04 21:35:00,
2013-06-04 17:40:00,77.3,72.1,30.00,East,81,1.9,6.9,84,0.00,OVC,,0.00,0.0,WeatherDisplay:10.37,2013-06-04 21:40:00,
2013-06-04 17:45:00,77.3,72.1,30.00,East,90,0.6,5.0,84,0.00,OVC,,0.00,0.0,WeatherDisplay:10.37,2013-06-04 21:45:00,
2013-06-04 17:50:00,77.4,72.2,30.01,East,80,2.2,8.1,84,0.00,OVC,,0.00,0.0,WeatherDisplay:10.37,2013-06-04 21:50:00,
2013-06-04 17:55:00,77.3,72.1,30.01,East,85,3.8,6.9,84,0.00,OVC,,0.00,0.0,WeatherDisplay:10.37,2013-06-04 21:55:00,
2013-06-04 18:00:00,77.3,72.1,30.01,East,97,2.5,9.2,84,0.00,OVC,,0.00,0.0,WeatherDisplay:10.37,2013-06-04 22:00:00,
2013-06-04 18:05:00,77.1,72.2,30.01,NNE,24,5.2,8.1,85,0.00,OVC,,0.00,0.0,WeatherDisplay:10.37,2013-06-04 22:05:00,
2013-06-04 18:10:00,77.0,72.1,30.01,ESE,119,1.0,8.1,85,0.00,OVC,,0.00,0.0,WeatherDisplay:10.37,2013-06-04 22:10:00,
2013-06-04 18:15:00,76.9,72.4,30.01,East,84,6.6,10.4,86,0.00,OVC,,0.00,0.0,WeatherDisplay:10.37,2013-06-04 22:15:00,
2013-06-04 18:20:00,76.6,72.1,30.01,East,98,5.6,6.9,86,0.00,OVC,,0.00,0.0,WeatherDisplay:10.37,2013-06-04 22:20:00,
2013-06-04 18:25:00,76.4,72.2,30.01,East,87,3.7,8.1,87,0.00,OVC,,0.00,0.0,WeatherDisplay:10.37,2013-06-04 22:25:00,
2013-06-04 18:30:00,76.4,72.2,30.02,ENE,57,0.6,3.5,87,0.00,OVC,,0.00,0.0,WeatherDisplay:10.37,2013-06-04 22:30:00,
2013-06-04 18:35:00,76.4,71.9,30.02,ESE,111,1.3,5.8,86,0.00,OVC,,0.00,0.0,WeatherDisplay:10.37,2013-06-04 22:35:00,
2013-06-04 18:40:00,76.2,72.0,30.01,East,96,1.4,5.8,87,0.00,OVC,,0.00,0.0,WeatherDisplay:10.37,2013-06-04 22:40:00,
2013-06-04 18:45:00,76.1,71.9,30.02,ENE,74,2.6,5.8,87,0.00,OVC,,0.00,0.0,WeatherDisplay:10.37,2013-06-04 22:45:00,
2013-06-04 18:50:00,76.0,71.8,30.02,East,85,2.3,6.9,87,0.00,OVC,,0.00,0.0,WeatherDisplay:10.37,2013-06-04 22:50:00,
2013-06-04 18:55:00,75.9,71.8,30.02,East,82,3.6,9.2,87,0.00,OVC,,0.00,0.0,WeatherDisplay:10.37,2013-06-04 22:55:00,
2013-06-04 19:00:00,75.8,71.7,30.02,ENE,63,3.1,9.2,87,0.00,OVC,,0.00,0.0,WeatherDisplay:10.37,2013-06-04 23:00:00,
2013-06-04 19:05:00,75.7,71.6,30.02,East,94,2.0,9.2,87,0.00,OVC,,0.00,0.0,WeatherDisplay:10.37,2013-06-04 23:05:00,
2013-06-04 19:10:00,75.7,71.6,30.02,SE,132,2.9,5.0,87,0.00,OVC,,0.00,0.0,WeatherDisplay:10.37,2013-06-04 23:10:00,
2013-06-04 19:15:00,75.6,71.5,30.02,ENE,69,2.3,11.5,87,0.00,OVC,,0.00,0.0,WeatherDisplay:10.37,2013-06-04 23:15:00,
2013-06-04 19:20:00,75.5,71.7,30.03,East,97,3.0,4.6,88,0.00,OVC,,0.00,0.0,WeatherDisplay:10.37,2013-06-04 23:20:00,
2013-06-04 19:25:00,75.5,71.7,30.03,NE,42,3.2,4.6,88,0.00,OVC,,0.00,0.0,WeatherDisplay:10.37,2013-06-04 23:25:00,
2013-06-04 19:30:00,75.5,71.7,30.03,ENE,67,2.4,8.1,88,0.00,OVC,,0.00,0.0,WeatherDisplay:10.37,2013-06-04 23:30:00,
2013-06-04 19:35:00,75.5,71.4,30.03,ESE,123,3.0,4.6,87,0.00,OVC,,0.00,0.0,WeatherDisplay:10.37,2013-06-04 23:35:00,
2013-06-04 19:40:00,75.4,71.3,30.02,ENE,78,1.7,9.2,87,0.00,OVC,,0.00,0.0,WeatherDisplay:10.37,2013-06-04 23:40:00,
2013-06-04 19:45:00,75.4,71.3,30.03,ENE,59,0.7,2.3,87,0.00,OVC,,0.00,0.0,WeatherDisplay:10.37,2013-06-04 23:45:00,
2013-06-04 19:50:00,75.3,70.8,30.03,East,90,1.0,3.5,86,0.00,OVC,,0.00,0.0,WeatherDisplay:10.37,2013-06-04 23:50:00,
2013-06-04 19:55:00,75.3,70.8,30.03,NE,55,3.7,5.8,86,0.00,OVC,,0.00,0.0,WeatherDisplay:10.37,2013-06-04 23:55:00,
2013-06-04 20:00:00,75.2,70.7,30.03,East,95,2.1,3.5,86,0.00,OVC,,0.00,0.0,WeatherDisplay:10.37,2013-06-05 00:00:00,
2013-06-04 20:06:00,75.1,71.0,30.03,SE,127,3.5,6.9,87,0.00,OVC,,0.00,0.0,WeatherDisplay:10.37,2013-06-05 00:06:00,
2013-06-04 20:11:00,74.9,70.8,30.04,ENE,78,1.9,4.6,87,0.00,OVC,,0.00,0.0,WeatherDisplay:10.37,2013-06-05 00:11:00,
2013-06-04 20:16:00,74.8,70.7,30.04,NE,51,2.0,5.0,87,0.00,OVC,,0.00,0.0,WeatherDisplay:10.37,2013-06-05 00:16:00,
2013-06-04 20:21:00,74.7,70.6,30.04,SE,134,2.7,4.6,87,0.00,OVC,,0.00,0.0,WeatherDisplay:10.37,2013-06-05 00:21:00,
2013-06-04 20:26:00,74.5,70.4,30.04,East,86,3.5,8.1,87,0.00,OVC,,0.00,0.0,WeatherDisplay:10.37,2013-06-05 00:26:00,
2013-06-04 20:31:00,74.4,69.9,30.04,ENE,71,4.3,8.1,86,0.00,OVC,,0.00,0.0,WeatherDisplay:10.37,2013-06-05 00:31:00,
2013-06-04 20:36:00,74.3,69.8,30.04,East,101,1.4,5.0,86,0.00,OVC,,0.00,0.0,WeatherDisplay:10.37,2013-06-05 00:36:00,
2013-06-04 20:41:00,74.2,69.7,30.04,ESE,123,3.1,5.8,86,0.00,OVC,,0.00,0.0,WeatherDisplay:10.37,2013-06-05 00:41:00,
2013-06-04 20:46:00,74.1,69.3,30.04,East,90,2.1,3.5,85,0.00,OVC,,0.00,0.0,WeatherDisplay:10.37,2013-06-05 00:46:00,
2013-06-04 20:51:00,74.0,69.2,30.04,East,94,4.0,5.8,85,0.00,OVC,,0.00,0.0,WeatherDisplay:10.37,2013-06-05 00:51:00,
2013-06-04 20:56:00,74.0,69.2,30.05,East,80,1.8,9.2,85,0.00,CLR,OVC,0.00,0.0,WeatherDisplay:10.37,2013-06-05 00:56:00,
2013-06-04 21:01:00,73.9,69.1,30.05,SE,137,4.0,6.9,85,0.00,CLR,OVC,0.00,0.0,WeatherDisplay:10.37,2013-06-05 01:01:00,
2013-06-04 21:06:00,73.9,69.1,30.05,East,93,1.8,3.5,85,0.00,CLR,OVC,0.00,0.0,WeatherDisplay:10.37,2013-06-05 01:06:00,
2013-06-04 21:11:00,73.9,69.1,30.05,East,84,0.4,1.1,85,0.00,CLR,OVC,0.00,0.0,WeatherDisplay:10.37,2013-06-05 01:11:00,
2013-06-04 21:16:00,73.8,69.0,30.05,ENE,68,3.6,8.1,85,0.00,CLR,OVC,0.00,0.0,WeatherDisplay:10.37,2013-06-05 01:16:00,
2013-06-04 21:21:00,73.8,69.0,30.05,East,82,0.9,5.8,85,0.00,CLR,OVC,0.00,0.0,WeatherDisplay:10.37,2013-06-05 01:21:00,
2013-06-04 21:26:00,73.7,68.9,30.05,ENE,66,1.7,6.0,85,0.00,CLR,OVC,0.00,0.0,WeatherDisplay:10.37,2013-06-05 01:26:00,
2013-06-04 21:31:00,73.7,68.9,30.06,NE,55,2.4,8.0,85,0.00,CLR,OVC,0.00,0.0,WeatherDisplay:10.37,2013-06-05 01:31:00,
2013-06-04 21:36:00,73.6,68.1,30.06,East,81,3.7,5.0,83,0.00,CLR,OVC,0.00,0.0,WeatherDisplay:10.37,2013-06-05 01:36:00,
2013-06-04 21:41:00,73.6,67.8,30.06,ENE,61,2.5,3.5,82,0.00,CLR,OVC,0.00,0.0,WeatherDisplay:10.37,2013-06-05 01:41:00,
2013-06-04 21:46:00,73.6,67.8,30.06,ENE,73,1.3,3.5,82,0.00,CLR,OVC,0.00,0.0,WeatherDisplay:10.37,2013-06-05 01:46:00,
2013-06-04 21:51:00,73.6,68.1,30.06,East,92,3.3,4.6,83,0.00,CLR,OVC,0.00,0.0,WeatherDisplay:10.37,2013-06-05 01:51:00,
2013-06-04 21:56:00,73.5,68.0,30.07,ENE,74,0.0,1.1,83,0.00,CLR,OVC,0.00,0.0,WeatherDisplay:10.37,2013-06-05 01:56:00,
2013-06-04 22:01:00,73.5,68.0,30.07,NNE,32,0.9,2.3,83,0.00,CLR,OVC,0.00,0.0,WeatherDisplay:10.37,2013-06-05 02:01:00,
2013-06-04 22:06:00,73.4,67.9,30.07,NE,56,2.6,6.9,83,0.00,CLR,OVC,0.00,0.0,WeatherDisplay:10.37,2013-06-05 02:06:00,
2013-06-04 22:11:00,73.3,68.2,30.07,ENE,59,1.4,2.3,84,0.00,CLR,OVC,0.00,0.0,WeatherDisplay:10.37,2013-06-05 02:11:00,
2013-06-04 22:16:00,73.3,68.2,30.08,NNE,20,1.7,6.0,84,0.00,CLR,OVC,0.00,0.0,WeatherDisplay:10.37,2013-06-05 02:16:00,
2013-06-04 22:21:00,73.2,68.1,30.08,East,96,1.3,3.5,84,0.00,CLR,OVC,0.00,0.0,WeatherDisplay:10.37,2013-06-05 02:21:00,
2013-06-04 22:27:00,73.2,68.1,30.08,ENE,59,2.4,4.0,84,0.00,CLR,OVC,0.00,0.0,WeatherDisplay:10.37,2013-06-05 02:27:00,
2013-06-04 22:32:00,73.2,68.1,30.08,NE,53,1.6,3.5,84,0.00,CLR,OVC,0.00,0.0,WeatherDisplay:10.37,2013-06-05 02:32:00,
2013-06-04 22:37:00,73.2,68.1,30.08,ENE,64,3.5,6.9,84,0.00,CLR,OVC,0.00,0.0,WeatherDisplay:10.37,2013-06-05 02:37:00,
2013-06-04 22:42:00,73.1,68.0,30.08,NE,37,4.0,6.9,84,0.00,CLR,OVC,0.00,0.0,WeatherDisplay:10.37,2013-06-05 02:42:00,
2013-06-04 22:47:00,73.1,68.3,30.08,ENE,77,1.7,3.5,85,0.00,CLR,OVC,0.00,0.0,WeatherDisplay:10.37,2013-06-05 02:47:00,
2013-06-04 22:52:00,73.1,68.3,30.08,NE,36,2.9,4.6,85,0.00,CLR,OVC,0.00,0.0,WeatherDisplay:10.37,2013-06-05 02:52:00,
2013-06-04 22:57:00,73.0,68.2,30.08,NE,55,3.1,7.0,85,0.00,CLR,OVC,0.00,0.0,WeatherDisplay:10.37,2013-06-05 02:57:00,
2013-06-04 23:02:00,73.0,68.2,30.08,ENE,64,2.3,8.1,85,0.00,CLR,OVC,0.00,0.0,WeatherDisplay:10.37,2013-06-05 03:02:00,
2013-06-04 23:07:00,73.0,68.2,30.08,East,80,1.4,3.5,85,0.00,CLR,OVC,0.00,0.0,WeatherDisplay:10.37,2013-06-05 03:07:00,
2013-06-04 23:12:00,72.9,68.1,30.08,NE,35,3.1,4.0,85,0.00,CLR,OVC,0.00,0.0,WeatherDisplay:10.37,2013-06-05 03:12:00,
2013-06-04 23:17:00,72.9,68.1,30.08,ENE,71,2.7,3.5,85,0.00,CLR,OVC,0.00,0.0,WeatherDisplay:10.37,2013-06-05 03:17:00,
2013-06-04 23:22:00,72.8,68.0,30.08,NE,49,3.3,5.8,85,0.00,CLR,OVC,0.00,0.0,WeatherDisplay:10.37,2013-06-05 03:22:00,
2013-06-04 23:27:00,72.7,67.9,30.08,ENE,60,5.1,5.8,85,0.00,CLR,OVC,0.00,0.0,WeatherDisplay:10.37,2013-06-05 03:27:00,
2013-06-04 23:32:00,72.7,68.3,30.08,East,84,3.3,7.0,86,0.00,CLR,OVC,0.00,0.0,WeatherDisplay:10.37,2013-06-05 03:32:00,
2013-06-04 23:37:00,72.7,68.3,30.09,ENE,65,3.4,5.8,86,0.00,CLR,OVC,0.00,0.0,WeatherDisplay:10.37,2013-06-05 03:37:00,
2013-06-04 23:42:00,72.7,68.3,30.08,East,101,3.6,6.0,86,0.00,CLR,OVC,0.00,0.0,WeatherDisplay:10.37,2013-06-05 03:42:00,
2013-06-04 23:47:00,72.7,68.3,30.08,NE,51,4.1,4.1,86,0.00,CLR,OVC,0.00,0.0,WeatherDisplay:10.37,2013-06-05 03:47:00,
2013-06-04 23:52:00,72.6,68.5,30.08,ENE,74,2.4,4.6,87,0.00,CLR,OVC,0.00,0.0,WeatherDisplay:10.37,2013-06-05 03:52:00,
2013-06-04 23:57:00,72.5,68.4,30.08,ENE,58,1.9,4.0,87,0.00,CLR,OVC,0.00,0.0,WeatherDisplay:10.37,2013-06-05 03:57:00,